| time (UTC) | temp C | wind direction | speed KPH | gust KPH | rain 1hr cm | rain 24hr cm | rain mn cm | humidity % | barometer mb |
| 20260904044051 | 27 | 127 | 4.8 | 14.5 | 0.00 | 0.00 | 0.00 | 57 | 1014.9 |
| 20260904043558 | 27 | 109 | 8.0 | 16.1 | 0.00 | 0.00 | 0.00 | 57 | 1014.9 |
| 20260904043106 | 28 | 123 | 4.8 | 16.1 | 0.00 | 0.00 | 0.00 | 58 | 1014.9 |
| 20260904042552 | 28 | 136 | 6.4 | 16.1 | 0.00 | 0.00 | 0.00 | 58 | 1014.9 |
| 20260904042055 | 28 | 126 | 6.4 | 14.5 | 0.00 | 0.00 | 0.00 | 58 | 1014.9 |
| 20260904041609 | 28 | 89 | 4.8 | 14.5 | 0.00 | 0.00 | 0.00 | 58 | 1014.9 |
| 20260904041052 | 28 | 88 | 3.2 | 12.9 | 0.00 | 0.00 | 0.00 | 58 | 1014.9 |
| 20260904040552 | 28 | 82 | 4.8 | 14.5 | 0.00 | 0.00 | 0.00 | 58 | 1014.8 |
| 20260904040104 | 28 | 84 | 4.8 | 14.5 | 0.00 | 0.00 | 0.00 | 57 | 1014.8 |
| 20260904035552 | 28 | 93 | 4.8 | 12.9 | 0.00 | 0.00 | 0.00 | 57 | 1014.7 |
| 20260904035055 | 28 | 126 | 3.2 | 14.5 | 0.00 | 0.00 | 0.00 | 57 | 1014.7 |
| 20260904034600 | 28 | 115 | 6.4 | 14.5 | 0.00 | 0.00 | 0.00 | 57 | 1014.5 |
| 20260904034052 | 28 | 103 | 4.8 | 16.1 | 0.00 | 0.00 | 0.00 | 57 | 1014.4 |
| 20260904033549 | 28 | 103 | 8.0 | 16.1 | 0.00 | 0.00 | 0.00 | 56 | 1014.3 |
| 20260904033058 | 28 | 62 | 4.8 | 12.9 | 0.00 | 0.00 | 0.00 | 54 | 1014.3 |
| 20260904032552 | 28 | 130 | 3.2 | 6.4 | 0.00 | 0.00 | 0.00 | 52 | 1014.2 |
| 20260904032052 | 29 | 0 | 1.6 | 8.0 | 0.00 | 0.00 | 0.00 | 53 | 1013.9 |
| 20260904031605 | 29 | 132 | 1.6 | 8.0 | 0.00 | 0.00 | 0.00 | 52 | 1013.8 |
| 20260904031053 | 29 | 0 | 1.6 | 8.0 | 0.00 | 0.00 | 0.00 | 52 | 1013.7 |
| 20260904030550 | 29 | 0 | 0.0 | 3.2 | 0.00 | 0.00 | 0.00 | 52 | 1013.6 |
| 20260904030103 | 29 | 0 | 0.0 | 11.3 | 0.00 | 0.00 | 0.00 | 51 | 1013.5 |
| 20260904025556 | 29 | 0 | 1.6 | 17.7 | 0.00 | 0.00 | 0.00 | 51 | 1013.5 |
| 20260904025052 | 29 | 154 | 6.4 | 17.7 | 0.00 | 0.00 | 0.00 | 51 | 1013.4 |
| 20260904024608 | 29 | 136 | 8.0 | 14.5 | 0.00 | 0.00 | 0.00 | 52 | 1013.4 |
| 20260904024050 | 29 | 134 | 6.4 | 12.9 | 0.00 | 0.00 | 0.00 | 52 | 1013.3 |
| 20260904023556 | 29 | 129 | 4.8 | 12.9 | 0.00 | 0.00 | 0.00 | 52 | 1013.2 |
| 20260904023105 | 30 | 99 | 3.2 | 12.9 | 0.00 | 0.00 | 0.00 | 52 | 1013.0 |
| 20260904022554 | 30 | 129 | 3.2 | 9.7 | 0.00 | 0.00 | 0.00 | 51 | 1013.0 |
| 20260904022052 | 30 | 163 | 0.0 | 8.0 | 0.00 | 0.00 | 0.00 | 50 | 1013.1 |
| 20260904021602 | 30 | 0 | 1.6 | 8.0 | 0.00 | 0.00 | 0.00 | 50 | 1013.1 |
| 20260904021052 | 30 | 163 | 1.6 | 6.4 | 0.00 | 0.00 | 0.00 | 50 | 1013.1 |
| 20260904020552 | 30 | 163 | 0.0 | 12.9 | 0.00 | 0.00 | 0.00 | 49 | 1013.0 |
| 20260904015552 | 30 | 154 | 4.8 | 14.5 | 0.00 | 0.00 | 0.00 | 47 | 1013.0 |
| 20260904015051 | 30 | 153 | 6.4 | 14.5 | 0.00 | 0.00 | 0.00 | 46 | 1012.9 |
| 20260904014608 | 31 | 137 | 4.8 | 12.9 | 0.00 | 0.00 | 0.00 | 45 | 1012.8 |
| 20260904014053 | 31 | 211 | 1.6 | 8.0 | 0.00 | 0.00 | 0.00 | 45 | 1012.6 |
| 20260904013556 | 31 | 0 | 3.2 | 11.3 | 0.00 | 0.00 | 0.00 | 45 | 1012.5 |
| 20260904013126 | 31 | 0 | 1.6 | 12.9 | 0.00 | 0.00 | 0.00 | 45 | 1012.7 |
| 20260904012554 | 31 | 186 | 4.8 | 12.9 | 0.00 | 0.00 | 0.00 | 44 | 1012.5 |
| 20260904012049 | 31 | 161 | 1.6 | 11.3 | 0.00 | 0.00 | 0.00 | 44 | 1012.8 |
| 20260904011601 | 31 | 188 | 3.2 | 11.3 | 0.00 | 0.00 | 0.00 | 44 | 1012.6 |
| 20260904011053 | 32 | 148 | 1.6 | 9.7 | 0.00 | 0.00 | 0.00 | 44 | 1012.5 |
| 20260904010552 | 32 | 159 | 1.6 | 9.7 | 0.00 | 0.00 | 0.00 | 43 | 1012.3 |
| 20260904010057 | 32 | 0 | 1.6 | 14.5 | 0.00 | 0.00 | 0.00 | 44 | 1012.2 |
| 20260904005552 | 32 | 212 | 3.2 | 14.5 | 0.00 | 0.00 | 0.00 | 43 | 1012.4 |
| 20260904005052 | 32 | 163 | 4.8 | 14.5 | 0.00 | 0.00 | 0.00 | 43 | 1012.4 |
| 20260904004603 | 32 | 172 | 3.2 | 14.5 | 0.00 | 0.00 | 0.00 | 43 | 1012.6 |
| 20260904004053 | 32 | 155 | 4.8 | 14.5 | 0.00 | 0.00 | 0.00 | 43 | 1012.6 |
| 20260904003552 | 32 | 157 | 3.2 | 12.9 | 0.00 | 0.00 | 0.00 | 43 | 1012.5 |
| 20260904003101 | 32 | 170 | 4.8 | 16.1 | 0.00 | 0.00 | 0.00 | 42 | 1012.5 |
| 20260904002549 | 32 | 157 | 6.4 | 16.1 | 0.00 | 0.00 | 0.00 | 43 | 1012.5 |
| 20260904002054 | 33 | 141 | 6.4 | 12.9 | 0.00 | 0.00 | 0.00 | 42 | 1012.2 |
| 20260904001609 | 33 | 158 | 6.4 | 12.9 | 0.00 | 0.00 | 0.00 | 40 | 1012.2 |
| 20260904001052 | 34 | 183 | 1.6 | 12.9 | 0.00 | 0.00 | 0.00 | 38 | 1012.2 |
| 20260904000555 | 33 | 232 | 3.2 | 12.9 | 0.00 | 0.00 | 0.00 | 38 | 1012.2 |
| 20260904000113 | 33 | 242 | 4.8 | 12.9 | 0.00 | 0.00 | 0.00 | 38 | 1012.4 |
| 20260903235553 | 34 | 233 | 4.8 | 11.3 | 0.00 | 0.00 | 0.00 | 39 | 1012.3 |
| 20260903235051 | 34 | 178 | 4.8 | 11.3 | 0.00 | 0.00 | 0.00 | 39 | 1012.5 |
| 20260903234606 | 34 | 0 | 0.0 | 9.7 | 0.00 | 0.00 | 0.00 | 38 | 1012.5 |
| 20260903234052 | 34 | 226 | 4.8 | 12.9 | 0.00 | 0.00 | 0.00 | 38 | 1012.5 |
| 20260903233552 | 34 | 0 | 3.2 | 12.9 | 0.00 | 0.00 | 0.00 | 38 | 1012.5 |
| 20260903233101 | 34 | 0 | 0.0 | 12.9 | 0.00 | 0.00 | 0.00 | 38 | 1012.6 |
| 20260903232555 | 34 | 0 | 4.8 | 12.9 | 0.00 | 0.00 | 0.00 | 39 | 1012.6 |
| 20260903232051 | 34 | 244 | 1.6 | 12.9 | 0.00 | 0.00 | 0.00 | 39 | 1012.7 |
| 20260903231610 | 34 | 248 | 0.0 | 11.3 | 0.00 | 0.00 | 0.00 | 40 | 1012.6 |
| 20260903231054 | 33 | 179 | 1.6 | 11.3 | 0.00 | 0.00 | 0.00 | 40 | 1012.6 |
| 20260903230552 | 33 | 0 | 0.0 | 9.7 | 0.00 | 0.00 | 0.00 | 41 | 1012.6 |
| 20260903230108 | 33 | 16 | 1.6 | 9.7 | 0.00 | 0.00 | 0.00 | 40 | 1012.6 |
| 20260903225552 | 33 | 0 | 0.0 | 14.5 | 0.00 | 0.00 | 0.00 | 41 | 1012.7 |
| 20260903225051 | 33 | 0 | 1.6 | 14.5 | 0.00 | 0.00 | 0.00 | 40 | 1012.7 |
| 20260903224603 | 33 | 350 | 8.0 | 14.5 | 0.00 | 0.00 | 0.00 | 41 | 1012.7 |
| 20260903224051 | 33 | 267 | 3.2 | 12.9 | 0.00 | 0.00 | 0.00 | 40 | 1012.6 |
| 20260903223550 | 33 | 352 | 3.2 | 14.5 | 0.00 | 0.00 | 0.00 | 40 | 1012.7 |
| 20260903223117 | 33 | 352 | 4.8 | 14.5 | 0.00 | 0.00 | 0.00 | 41 | 1012.7 |
| 20260903222552 | 33 | 32 | 1.6 | 6.4 | 0.00 | 0.00 | 0.00 | 42 | 1012.5 |
| 20260903222053 | 32 | 0 | 1.6 | 16.1 | 0.00 | 0.00 | 0.00 | 43 | 1012.6 |
| 20260903221604 | 32 | 249 | 3.2 | 16.1 | 0.00 | 0.00 | 0.00 | 43 | 1012.8 |
| 20260903221051 | 32 | 255 | 8.0 | 16.1 | 0.00 | 0.00 | 0.00 | 42 | 1013.0 |
| 20260903220552 | 32 | 254 | 6.4 | 14.5 | 0.00 | 0.00 | 0.00 | 41 | 1013.1 |
| 20260903215555 | 33 | 292 | 1.6 | 8.0 | 0.00 | 0.00 | 0.00 | 42 | 1013.1 |
| 20260903215053 | 32 | 292 | 1.6 | 11.3 | 0.00 | 0.00 | 0.00 | 43 | 1013.1 |
| 20260903214600 | 32 | 0 | 3.2 | 11.3 | 0.00 | 0.00 | 0.00 | 44 | 1013.2 |
| 20260903214051 | 32 | 298 | 4.8 | 14.5 | 0.00 | 0.00 | 0.00 | 44 | 1013.3 |
| 20260903213554 | 32 | 0 | 3.2 | 14.5 | 0.00 | 0.00 | 0.00 | 43 | 1013.3 |
| 20260903213113 | 32 | 27 | 3.2 | 8.0 | 0.00 | 0.00 | 0.00 | 43 | 1013.3 |
| 20260903212555 | 32 | 5 | 0.0 | 8.0 | 0.00 | 0.00 | 0.00 | 44 | 1013.4 |
| 20260903212053 | 32 | 0 | 3.2 | 9.7 | 0.00 | 0.00 | 0.00 | 44 | 1013.5 |
| 20260903211602 | 32 | 352 | 4.8 | 14.5 | 0.00 | 0.00 | 0.00 | 44 | 1013.5 |
| 20260903211055 | 32 | 55 | 4.8 | 14.5 | 0.00 | 0.00 | 0.00 | 45 | 1013.5 |
| 20260903210552 | 32 | 352 | 4.8 | 14.5 | 0.00 | 0.00 | 0.00 | 45 | 1013.7 |
| 20260903205551 | 31 | 327 | 6.4 | 14.5 | 0.00 | 0.00 | 0.00 | 47 | 1013.8 |
| 20260903205051 | 31 | 261 | 3.2 | 14.5 | 0.00 | 0.00 | 0.00 | 47 | 1013.9 |
| 20260903204600 | 31 | 269 | 4.8 | 14.5 | 0.00 | 0.00 | 0.00 | 46 | 1014.0 |
| 20260903204051 | 31 | 246 | 6.4 | 14.5 | 0.00 | 0.00 | 0.00 | 46 | 1014.1 |
| 20260903203554 | 31 | 238 | 4.8 | 11.3 | 0.00 | 0.00 | 0.00 | 45 | 1014.0 |
| 20260903203058 | 31 | 0 | 0.0 | 9.7 | 0.00 | 0.00 | 0.00 | 45 | 1014.1 |
| 20260903202553 | 31 | 0 | 1.6 | 9.7 | 0.00 | 0.00 | 0.00 | 45 | 1014.2 |
| 20260903202053 | 32 | 17 | 1.6 | 11.3 | 0.00 | 0.00 | 0.00 | 44 | 1014.3 |
| 20260903201606 | 32 | 0 | 4.8 | 11.3 | 0.00 | 0.00 | 0.00 | 44 | 1014.4 |
| 20260903201055 | 32 | 209 | 3.2 | 8.0 | 0.00 | 0.00 | 0.00 | 45 | 1014.4 |
| 20260903200552 | 31 | 0 | 0.0 | 9.7 | 0.00 | 0.00 | 0.00 | 45 | 1014.5 |
| 20260903200104 | 31 | 0 | 0.0 | 9.7 | 0.00 | 0.00 | 0.00 | 45 | 1014.6 |
| 20260903195551 | 31 | 254 | 3.2 | 9.7 | 0.00 | 0.00 | 0.00 | 44 | 1014.6 |
| 20260903195051 | 32 | 52 | 1.6 | 9.7 | 0.00 | 0.00 | 0.00 | 43 | 1014.8 |
| 20260903194601 | 32 | 141 | 1.6 | 8.0 | 0.00 | 0.00 | 0.00 | 44 | 1014.9 |
| 20260903194051 | 32 | 117 | 0.0 | 11.3 | 0.00 | 0.00 | 0.00 | 45 | 1015.0 |
| 20260903193551 | 31 | 115 | 3.2 | 11.3 | 0.00 | 0.00 | 0.00 | 46 | 1015.0 |
| 20260903193057 | 31 | 0 | 6.4 | 16.1 | 0.00 | 0.00 | 0.00 | 46 | 1015.1 |
| 20260903192556 | 31 | 137 | 4.8 | 16.1 | 0.00 | 0.00 | 0.00 | 45 | 1015.2 |
| 20260903192052 | 31 | 98 | 6.4 | 14.5 | 0.00 | 0.00 | 0.00 | 45 | 1015.3 |
| 20260903191602 | 31 | 66 | 1.6 | 14.5 | 0.00 | 0.00 | 0.00 | 46 | 1015.3 |
| 20260903191056 | 31 | 116 | 4.8 | 14.5 | 0.00 | 0.00 | 0.00 | 46 | 1015.5 |
| 20260903190552 | 31 | 170 | 3.2 | 11.3 | 0.00 | 0.00 | 0.00 | 47 | 1015.5 |
| 20260903190106 | 31 | 340 | 3.2 | 11.3 | 0.00 | 0.00 | 0.00 | 47 | 1015.7 |
| 20260903185555 | 31 | 277 | 3.2 | 11.3 | 0.00 | 0.00 | 0.00 | 47 | 1015.7 |
| 20260903185053 | 31 | 94 | 1.6 | 9.7 | 0.00 | 0.00 | 0.00 | 47 | 1015.8 |
| 20260903184608 | 31 | 0 | 1.6 | 9.7 | 0.00 | 0.00 | 0.00 | 47 | 1016.0 |
| 20260903184053 | 31 | 0 | 0.0 | 9.7 | 0.00 | 0.00 | 0.00 | 47 | 1016.0 |
| 20260903183556 | 31 | 92 | 1.6 | 9.7 | 0.00 | 0.00 | 0.00 | 48 | 1016.1 |
| 20260903183106 | 31 | 91 | 1.6 | 11.3 | 0.00 | 0.00 | 0.00 | 48 | 1016.2 |
| 20260903182552 | 30 | 88 | 4.8 | 11.3 | 0.00 | 0.00 | 0.00 | 49 | 1016.3 |
| 20260903182054 | 30 | 126 | 3.2 | 11.3 | 0.00 | 0.00 | 0.00 | 49 | 1016.3 |
| 20260903181601 | 30 | 211 | 1.6 | 11.3 | 0.00 | 0.00 | 0.00 | 49 | 1016.5 |
| 20260903181053 | 30 | 164 | 3.2 | 11.3 | 0.00 | 0.00 | 0.00 | 48 | 1016.6 |
| 20260903180553 | 30 | 165 | 3.2 | 11.3 | 0.00 | 0.00 | 0.00 | 50 | 1016.7 |
| 20260903180113 | 30 | 90 | 1.6 | 9.7 | 0.00 | 0.00 | 0.00 | 52 | 1016.7 |
| 20260903175552 | 29 | 100 | 1.6 | 9.7 | 0.00 | 0.00 | 0.00 | 53 | 1016.8 |
| 20260903175052 | 29 | 100 | 1.6 | 9.7 | 0.00 | 0.00 | 0.00 | 53 | 1016.9 |
| 20260903174603 | 29 | 0 | 3.2 | 6.4 | 0.00 | 0.00 | 0.00 | 54 | 1016.9 |
| 20260903174051 | 28 | 73 | 1.6 | 9.7 | 0.00 | 0.00 | 0.00 | 56 | 1017.0 |
| 20260903173551 | 28 | 67 | 3.2 | 9.7 | 0.00 | 0.00 | 0.00 | 55 | 1016.9 |
| 20260903173108 | 28 | 117 | 1.6 | 8.0 | 0.00 | 0.00 | 0.00 | 56 | 1016.9 |
| 20260903172551 | 28 | 132 | 1.6 | 6.4 | 0.00 | 0.00 | 0.00 | 57 | 1016.9 |
| 20260903172051 | 27 | 134 | 1.6 | 11.3 | 0.00 | 0.00 | 0.00 | 58 | 1017.0 |
| 20260903171558 | 27 | 89 | 3.2 | 11.3 | 0.00 | 0.00 | 0.00 | 58 | 1017.1 |
| 20260903171053 | 27 | 129 | 1.6 | 8.0 | 0.00 | 0.00 | 0.00 | 58 | 1017.0 |
| 20260903170552 | 27 | 0 | 3.2 | 8.0 | 0.00 | 0.00 | 0.00 | 58 | 1016.9 |
| 20260903170109 | 27 | 129 | 0.0 | 6.4 | 0.00 | 0.00 | 0.00 | 59 | 1016.9 |
| 20260903165551 | 27 | 130 | 0.0 | 6.4 | 0.00 | 0.00 | 0.00 | 59 | 1016.9 |
| 20260903165052 | 27 | 0 | 3.2 | 9.7 | 0.00 | 0.00 | 0.00 | 59 | 1017.0 |
| 20260903164604 | 27 | 119 | 4.8 | 9.7 | 0.00 | 0.00 | 0.00 | 58 | 1016.9 |
| 20260903164052 | 27 | 123 | 1.6 | 6.4 | 0.00 | 0.00 | 0.00 | 57 | 1016.8 |
| 20260903163554 | 27 | 123 | 0.0 | 6.4 | 0.00 | 0.00 | 0.00 | 57 | 1016.9 |
| 20260903163135 | 27 | 121 | 3.2 | 6.4 | 0.00 | 0.00 | 0.00 | 58 | 1017.0 |
| 20260903162557 | 27 | 0 | 0.0 | 8.0 | 0.00 | 0.00 | 0.00 | 58 | 1017.0 |
| 20260903162053 | 27 | 0 | 1.6 | 8.0 | 0.00 | 0.00 | 0.00 | 57 | 1017.0 |
| 20260903161558 | 27 | 149 | 1.6 | 8.0 | 0.00 | 0.00 | 0.00 | 57 | 1017.0 |
| 20260903161053 | 27 | 161 | 1.6 | 6.4 | 0.00 | 0.00 | 0.00 | 57 | 1017.0 |
| 20260903160553 | 27 | 165 | 1.6 | 6.4 | 0.00 | 0.00 | 0.00 | 56 | 1017.0 |
| 20260903160107 | 27 | 94 | 1.6 | 6.4 | 0.00 | 0.00 | 0.00 | 57 | 1017.1 |
| 20260903155552 | 27 | 0 | 0.0 | 6.4 | 0.00 | 0.00 | 0.00 | 57 | 1017.1 |
| 20260903155056 | 27 | 78 | 1.6 | 6.4 | 0.00 | 0.00 | 0.00 | 57 | 1017.0 |
| 20260903154601 | 27 | 76 | 0.0 | 4.8 | 0.00 | 0.00 | 0.00 | 57 | 1016.8 |
| 20260903154051 | 26 | 0 | 0.0 | 0.0 | 0.00 | 0.00 | 0.00 | 57 | 1016.9 |
| 20260903153553 | 26 | 0 | 0.0 | 0.0 | 0.00 | 0.00 | 0.00 | 58 | 1016.9 |
| 20260903153103 | 26 | 0 | 0.0 | 6.4 | 0.00 | 0.00 | 0.00 | 59 | 1016.9 |
| 20260903152555 | 26 | 0 | 0.0 | 6.4 | 0.00 | 0.00 | 0.00 | 59 | 1016.9 |
| 20260903152056 | 26 | 27 | 1.6 | 6.4 | 0.00 | 0.00 | 0.00 | 60 | 1016.9 |
| 20260903151602 | 26 | 18 | 0.0 | 4.8 | 0.00 | 0.00 | 0.00 | 60 | 1016.8 |
| 20260903151054 | 25 | 0 | 0.0 | 0.0 | 0.00 | 0.00 | 0.00 | 61 | 1016.9 |
| 20260903150551 | 25 | 0 | 0.0 | 4.8 | 0.00 | 0.00 | 0.00 | 65 | 1016.9 |
| 20260903150105 | 25 | 0 | 1.6 | 6.4 | 0.00 | 0.00 | 0.00 | 67 | 1017.0 |
| 20260903145556 | 25 | 0 | 1.6 | 6.4 | 0.00 | 0.00 | 0.00 | 68 | 1016.9 |
| 20260903145057 | 25 | 18 | 1.6 | 6.4 | 0.00 | 0.00 | 0.00 | 69 | 1017.0 |
| 20260903144610 | 25 | 18 | 3.2 | 6.4 | 0.00 | 0.00 | 0.00 | 68 | 1017.0 |
| 20260903144055 | 24 | 16 | 0.0 | 6.4 | 0.00 | 0.00 | 0.00 | 68 | 1017.0 |
| 20260903143550 | 25 | 0 | 3.2 | 6.4 | 0.00 | 0.00 | 0.00 | 68 | 1016.9 |
| 20260903143105 | 25 | 16 | 1.6 | 6.4 | 0.00 | 0.00 | 0.00 | 68 | 1017.0 |
| 20260903142555 | 25 | 16 | 1.6 | 8.0 | 0.00 | 0.00 | 0.00 | 67 | 1016.9 |
| 20260903142052 | 25 | 0 | 3.2 | 8.0 | 0.00 | 0.00 | 0.00 | 67 | 1016.9 |
| 20260903141603 | 25 | 21 | 4.8 | 8.0 | 0.00 | 0.00 | 0.00 | 64 | 1016.9 |
| 20260903141053 | 25 | 0 | 0.0 | 6.4 | 0.00 | 0.00 | 0.00 | 61 | 1017.0 |
| 20260903140551 | 25 | 0 | 1.6 | 6.4 | 0.00 | 0.00 | 0.00 | 60 | 1016.9 |
| 20260903140105 | 25 | 265 | 1.6 | 9.7 | 0.00 | 0.00 | 0.00 | 60 | 1016.8 |
| 20260903135553 | 25 | 0 | 3.2 | 12.9 | 0.00 | 0.00 | 0.00 | 61 | 1016.9 |
| 20260903135052 | 25 | 255 | 4.8 | 16.1 | 0.00 | 0.00 | 0.00 | 60 | 1016.7 |
| 20260903134628 | 25 | 301 | 6.4 | 16.1 | 0.00 | 0.00 | 0.00 | 59 | 1016.6 |
| 20260903134056 | 25 | 282 | 4.8 | 14.5 | 0.00 | 0.00 | 0.00 | 61 | 1016.6 |
| 20260903133557 | 25 | 263 | 1.6 | 16.1 | 0.00 | 0.00 | 0.00 | 64 | 1016.4 |
| 20260903133109 | 25 | 263 | 6.4 | 16.1 | 0.00 | 0.00 | 0.00 | 62 | 1016.4 |
| 20260903132555 | 25 | 246 | 8.0 | 16.1 | 0.00 | 0.00 | 0.00 | 63 | 1016.5 |
| 20260903132055 | 25 | 335 | 6.4 | 14.5 | 0.00 | 0.00 | 0.00 | 61 | 1016.4 |
| 20260903131608 | 25 | 333 | 3.2 | 14.5 | 0.00 | 0.00 | 0.00 | 60 | 1016.4 |
| 20260903131051 | 25 | 301 | 3.2 | 16.1 | 0.00 | 0.00 | 0.00 | 60 | 1016.3 |
| 20260903130555 | 26 | 281 | 4.8 | 27.4 | 0.00 | 0.00 | 0.00 | 59 | 1016.2 |
| 20260903130108 | 26 | 0 | 4.8 | 27.4 | 0.00 | 0.00 | 0.00 | 58 | 1016.0 |
| 20260903125553 | 25 | 283 | 9.7 | 24.1 | 0.00 | 0.00 | 0.00 | 58 | 1015.9 |
| 20260903125053 | 25 | 233 | 9.7 | 24.1 | 0.00 | 0.00 | 0.00 | 61 | 1015.9 |
| 20260903124606 | 26 | 223 | 8.0 | 22.5 | 0.00 | 0.00 | 0.00 | 62 | 1015.9 |
| 20260903124052 | 26 | 222 | 9.7 | 24.1 | 0.00 | 0.00 | 0.00 | 60 | 1015.9 |
| 20260903123552 | 26 | 221 | 6.4 | 30.6 | 0.00 | 0.00 | 0.00 | 59 | 1015.8 |
| 20260903123110 | 26 | 197 | 8.0 | 30.6 | 0.00 | 0.00 | 0.00 | 59 | 1015.6 |
| 20260903122551 | 26 | 237 | 12.9 | 29.0 | 0.00 | 0.00 | 0.00 | 59 | 1015.7 |
| 20260903122054 | 26 | 232 | 6.4 | 16.1 | 0.00 | 0.00 | 0.00 | 60 | 1015.7 |
| 20260903121603 | 26 | 230 | 3.2 | 9.7 | 0.00 | 0.00 | 0.00 | 60 | 1015.7 |
| 20260903121050 | 26 | 238 | 1.6 | 11.3 | 0.00 | 0.00 | 0.00 | 60 | 1015.7 |
| 20260903120557 | 26 | 235 | 3.2 | 11.3 | 0.00 | 0.00 | 0.00 | 65 | 1015.8 |
| 20260903120130 | 25 | 228 | 3.2 | 11.3 | 0.00 | 0.00 | 0.00 | 68 | 1015.9 |
| 20260903115553 | 25 | 115 | 0.0 | 0.0 | 0.00 | 0.00 | 0.00 | 70 | 1015.8 |
| 20260903115055 | 25 | 0 | 0.0 | 0.0 | 0.00 | 0.00 | 0.00 | 69 | 1015.5 |
| 20260903114606 | 25 | 0 | 0.0 | 3.2 | 0.00 | 0.00 | 0.00 | 69 | 1015.5 |
| 20260903114051 | 25 | 0 | 0.0 | 6.4 | 0.00 | 0.00 | 0.00 | 69 | 1015.4 |
| 20260903113553 | 25 | 0 | 0.0 | 6.4 | 0.00 | 0.00 | 0.00 | 69 | 1015.5 |
| 20260903113107 | 25 | 115 | 1.6 | 6.4 | 0.00 | 0.00 | 0.00 | 69 | 1015.5 |
| 20260903112551 | 25 | 114 | 0.0 | 9.7 | 0.00 | 0.00 | 0.00 | 70 | 1015.6 |
| 20260903112050 | 25 | 114 | 3.2 | 9.7 | 0.00 | 0.00 | 0.00 | 70 | 1015.5 |
| 20260903111601 | 25 | 114 | 3.2 | 9.7 | 0.00 | 0.00 | 0.00 | 70 | 1015.5 |
| 20260903111056 | 25 | 122 | 3.2 | 6.4 | 0.00 | 0.00 | 0.00 | 70 | 1015.5 |
| 20260903110551 | 26 | 122 | 0.0 | 6.4 | 0.00 | 0.00 | 0.00 | 70 | 1015.4 |
| 20260903110103 | 26 | 122 | 1.6 | 6.4 | 0.00 | 0.00 | 0.00 | 70 | 1015.4 |
| 20260903105553 | 26 | 122 | 1.6 | 8.0 | 0.00 | 0.00 | 0.00 | 68 | 1015.4 |
| 20260903105052 | 26 | 0 | 0.0 | 8.0 | 0.00 | 0.00 | 0.00 | 66 | 1015.5 |
| 20260903104609 | 26 | 126 | 1.6 | 8.0 | 0.00 | 0.00 | 0.00 | 67 | 1015.5 |
| 20260903104050 | 26 | 126 | 1.6 | 4.8 | 0.00 | 0.00 | 0.00 | 67 | 1015.5 |
| 20260903103550 | 26 | 0 | 0.0 | 1.6 | 0.00 | 0.00 | 0.00 | 68 | 1015.4 |
| 20260903103104 | 26 | 0 | 0.0 | 3.2 | 0.00 | 0.00 | 0.00 | 68 | 1015.5 |
| 20260903102553 | 26 | 0 | 0.0 | 4.8 | 0.00 | 0.00 | 0.00 | 68 | 1015.5 |
| 20260903102050 | 26 | 0 | 1.6 | 4.8 | 0.00 | 0.00 | 0.00 | 68 | 1015.5 |
| 20260903101601 | 26 | 0 | 0.0 | 0.0 | 0.00 | 0.00 | 0.00 | 65 | 1015.5 |
| 20260903101050 | 26 | 0 | 0.0 | 4.8 | 0.00 | 0.00 | 0.00 | 64 | 1015.5 |
| 20260903100554 | 26 | 0 | 0.0 | 4.8 | 0.00 | 0.00 | 0.00 | 64 | 1015.5 |
| 20260903095552 | 26 | 0 | 0.0 | 0.0 | 0.00 | 0.00 | 0.00 | 64 | 1015.6 |
| 20260903095053 | 26 | 0 | 0.0 | 0.0 | 0.00 | 0.00 | 0.00 | 65 | 1015.6 |
| 20260903094603 | 26 | 0 | 0.0 | 0.0 | 0.00 | 0.00 | 0.00 | 66 | 1015.6 |
| 20260903094051 | 26 | 0 | 0.0 | 0.0 | 0.00 | 0.00 | 0.00 | 67 | 1015.7 |
| 20260903093554 | 26 | 0 | 0.0 | 0.0 | 0.00 | 0.00 | 0.00 | 68 | 1015.7 |
| 20260903093106 | 26 | 0 | 0.0 | 0.0 | 0.00 | 0.00 | 0.00 | 66 | 1015.7 |
| 20260903092553 | 26 | 0 | 0.0 | 0.0 | 0.00 | 0.00 | 0.00 | 67 | 1015.7 |
| 20260903092054 | 26 | 0 | 0.0 | 0.0 | 0.00 | 0.00 | 0.00 | 66 | 1015.5 |
| 20260903091601 | 26 | 0 | 0.0 | 0.0 | 0.00 | 0.00 | 0.00 | 67 | 1015.5 |
| 20260903091053 | 26 | 0 | 0.0 | 0.0 | 0.00 | 0.00 | 0.00 | 63 | 1015.6 |
| 20260903090551 | 26 | 0 | 0.0 | 0.0 | 0.00 | 0.00 | 0.00 | 65 | 1015.6 |
| 20260903090058 | 26 | 0 | 0.0 | 0.0 | 0.00 | 0.00 | 0.00 | 64 | 1015.6 |
| 20260903085552 | 26 | 0 | 0.0 | 0.0 | 0.00 | 0.00 | 0.00 | 63 | 1015.8 |
| 20260903085052 | 26 | 0 | 0.0 | 0.0 | 0.00 | 0.00 | 0.00 | 63 | 1015.8 |
| 20260903084603 | 26 | 0 | 0.0 | 0.0 | 0.00 | 0.00 | 0.00 | 62 | 1015.8 |
| 20260903084053 | 26 | 0 | 0.0 | 0.0 | 0.00 | 0.00 | 0.00 | 63 | 1015.8 |
| 20260903083557 | 27 | 0 | 0.0 | 0.0 | 0.00 | 0.00 | 0.00 | 63 | 1015.9 |
| 20260903083106 | 27 | 0 | 0.0 | 0.0 | 0.00 | 0.00 | 0.00 | 62 | 1015.9 |
| 20260903082553 | 27 | 0 | 0.0 | 0.0 | 0.00 | 0.00 | 0.00 | 62 | 1015.8 |
| 20260903082051 | 27 | 0 | 0.0 | 0.0 | 0.00 | 0.00 | 0.00 | 62 | 1015.9 |
| 20260903081601 | 27 | 0 | 0.0 | 0.0 | 0.00 | 0.00 | 0.00 | 62 | 1015.9 |
| 20260903081053 | 27 | 0 | 0.0 | 0.0 | 0.00 | 0.00 | 0.00 | 60 | 1016.0 |
| 20260903080552 | 27 | 0 | 0.0 | 0.0 | 0.00 | 0.00 | 0.00 | 60 | 1015.9 |
| 20260903075553 | 27 | 0 | 0.0 | 0.0 | 0.00 | 0.00 | 0.00 | 59 | 1015.9 |
| 20260903075052 | 27 | 0 | 0.0 | 0.0 | 0.00 | 0.00 | 0.00 | 58 | 1016.0 |
| 20260903074637 | 27 | 0 | 0.0 | 0.0 | 0.00 | 0.00 | 0.00 | 57 | 1016.0 |
| 20260903074052 | 27 | 0 | 0.0 | 3.2 | 0.00 | 0.00 | 0.00 | 57 | 1015.9 |
| 20260903073550 | 27 | 0 | 0.0 | 9.7 | 0.00 | 0.00 | 0.00 | 57 | 1015.9 |
| 20260903073115 | 27 | 0 | 1.6 | 9.7 | 0.00 | 0.00 | 0.00 | 57 | 1016.0 |
| 20260903072556 | 27 | 124 | 3.2 | 9.7 | 0.00 | 0.00 | 0.00 | 58 | 1015.9 |
| 20260903072053 | 27 | 0 | 1.6 | 4.8 | 0.00 | 0.00 | 0.00 | 57 | 1016.0 |
| 20260903071605 | 27 | 0 | 0.0 | 3.2 | 0.00 | 0.00 | 0.00 | 57 | 1015.9 |
| 20260903071053 | 27 | 0 | 0.0 | 4.8 | 0.00 | 0.00 | 0.00 | 57 | 1015.8 |
| 20260903070553 | 27 | 0 | 0.0 | 4.8 | 0.00 | 0.00 | 0.00 | 57 | 1015.7 |
| 20260903070114 | 27 | 0 | 0.0 | 4.8 | 0.00 | 0.00 | 0.00 | 59 | 1015.8 |
| 20260903065553 | 27 | 0 | 0.0 | 0.0 | 0.00 | 0.00 | 0.00 | 59 | 1015.7 |
| 20260903065052 | 27 | 0 | 0.0 | 0.0 | 0.00 | 0.00 | 0.00 | 60 | 1015.7 |
| 20260903064602 | 27 | 0 | 0.0 | 0.0 | 0.00 | 0.00 | 0.00 | 61 | 1015.8 |
| 20260903064052 | 27 | 0 | 0.0 | 0.0 | 0.00 | 0.00 | 0.00 | 61 | 1015.7 |
| 20260903063552 | 27 | 0 | 0.0 | 0.0 | 0.00 | 0.00 | 0.00 | 58 | 1015.7 |
| 20260903063109 | 27 | 0 | 0.0 | 0.0 | 0.00 | 0.00 | 0.00 | 58 | 1015.7 |
| 20260903062552 | 27 | 0 | 0.0 | 0.0 | 0.00 | 0.00 | 0.00 | 60 | 1015.7 |
| 20260903062053 | 27 | 0 | 0.0 | 0.0 | 0.00 | 0.00 | 0.00 | 60 | 1015.8 |
| 20260903061610 | 27 | 0 | 0.0 | 0.0 | 0.00 | 0.00 | 0.00 | 60 | 1015.9 |
| 20260903061056 | 27 | 0 | 0.0 | 0.0 | 0.00 | 0.00 | 0.00 | 59 | 1015.9 |
| 20260903060553 | 27 | 0 | 0.0 | 0.0 | 0.00 | 0.00 | 0.00 | 59 | 1015.9 |
| 20260903060058 | 27 | 0 | 0.0 | 4.8 | 0.00 | 0.00 | 0.00 | 59 | 1015.9 |
| 20260903055552 | 27 | 0 | 0.0 | 4.8 | 0.00 | 0.00 | 0.00 | 59 | 1015.8 |
| 20260903055051 | 28 | 0 | 0.0 | 4.8 | 0.00 | 0.00 | 0.00 | 59 | 1015.9 |
| 20260903054606 | 28 | 0 | 0.0 | 6.4 | 0.00 | 0.00 | 0.00 | 59 | 1015.9 |
| 20260903054053 | 28 | 0 | 1.6 | 6.4 | 0.00 | 0.00 | 0.00 | 59 | 1015.9 |
| 20260903053552 | 28 | 0 | 0.0 | 6.4 | 0.00 | 0.00 | 0.00 | 57 | 1015.9 |
| 20260903053101 | 28 | 279 | 1.6 | 6.4 | 0.00 | 0.00 | 0.00 | 54 | 1015.9 |
| 20260903052557 | 28 | 80 | 3.2 | 6.4 | 0.00 | 0.00 | 0.00 | 59 | 1016.0 |
| 20260903052051 | 28 | 80 | 1.6 | 6.4 | 0.00 | 0.00 | 0.00 | 53 | 1015.9 |
| 20260903051610 | 28 | 0 | 0.0 | 4.8 | 0.00 | 0.00 | 0.00 | 55 | 1015.9 |
| 20260903051052 | 28 | 80 | 1.6 | 4.8 | 0.00 | 0.00 | 0.00 | 55 | 1015.9 |
| 20260903050552 | 28 | 80 | 0.0 | 6.4 | 0.00 | 0.00 | 0.00 | 59 | 1015.9 |
| 20260903050111 | 28 | 80 | 3.2 | 6.4 | 0.00 | 0.00 | 0.00 | 55 | 1015.8 |
| 20260903045554 | 28 | 80 | 0.0 | 3.2 | 0.00 | 0.00 | 0.00 | 57 | 1015.8 |
| 20260903045051 | 28 | 80 | 0.0 | 6.4 | 0.00 | 0.00 | 0.00 | 58 | 1015.8 |
| 20260903044603 | 28 | 80 | 1.6 | 11.3 | 0.00 | 0.00 | 0.00 | 57 | 1015.8 |